Amateur Radio Satellites - All Passes

Search period start: 19 May 2013 01:15
Search period end: 20 May 2013 01:15
Location: Unspecified, 0.0000°N, 0.0000°E

Satellite Date Start Highest point End Downlink Frequencies (MHz)
Time Altitude Azimuth
Uribyol 2 19 May 01:45:20 01:50:32 78° 282° (WNW) 01:55:46 436.500 FM
MaSat-1 19 May 01:54:50 02:01:03 28° 286° (WNW) 02:07:08 437.345 MHz
Oscar 19 19 May 01:57:59 02:02:52 45° 282° (WNW) 02:07:45 437.125 CW, 437.150 USB
AO-40 19 May 02:11:34 03:36:34 35° 277° (W) 07:02:16 Beacon 2401.320
Uosat F 19 May 02:26:09 02:30:17 26° 103° (ESE) 02:34:26 435.120 FM
Gurwin Techsat 1B 19 May 02:35:03 02:39:23 26° 103° (ESE) 02:43:43 435.225 FM
AO-27 19 May 02:36:09 02:39:53 20° 283° (WNW) 02:43:39 436.795 MHz FM
AO-Echo 19 May 02:36:11 02:41:01 76° 282° (WNW) 02:46:02 ?
Oscar 16 19 May 02:39:20 02:41:18 12° 283° (WNW) 02:43:17 437.025 USB, Beacon 2401.1428
ITAMSAT 1 19 May 02:44:26 02:47:40 17° 283° (WNW) 02:50:55 435.822 SSB
RS-15 19 May 02:46:02 02:56:40 61° 69° (ENE) 03:07:28 29.354 - 29.394 USB, Beacon 29.352 USB
Oscar 10/S400 19 May 02:49:38 03:45:48 80° 321° (NW) 13:47:43 145.825 - 145.975 CW/USB, Beacon 145.810 USB
Saudisat 1A 19 May 03:38:45 03:40:57 14° 112° (ESE) 03:43:09 436.775 MHz
AO-7 19 May 03:52:04 03:59:31 37° 106° (ESE) 04:06:57 29.400 - 29.500 MHz
TMSAT-1 19 May 03:54:47 03:59:59 58° 282° (WNW) 04:05:11 436.925 FM
Uosat F 19 May 04:05:28 04:08:50 18° 283° (WNW) 04:12:12 435.120 FM
Gurwin Techsat 1B 19 May 04:15:16 04:19:05 20° 283° (WNW) 04:22:55 435.225 FM
RS-15 19 May 05:01:09 05:08:41 21° 247° (WSW) 05:16:24 29.354 - 29.394 USB, Beacon 29.352 USB
Saudisat 1A 19 May 05:16:36 05:20:23 27° 292° (WNW) 05:24:13 436.775 MHz
STRAND 1 19 May 05:27:30 05:31:56 30° 77° (ENE) 05:36:20 ?
Sapphire 19 May 05:28:54 05:32:44 20° 110° (ESE) 05:36:33 437.095 MHz 1200 baud AX-25 AFSK
AO-7 19 May 05:44:57 05:51:56 31° 286° (WNW) 05:58:58 29.400 - 29.500 MHz
PCSat 19 May 06:37:51 06:43:09 60° 289° (WNW) 06:48:27 145.825 MHz
Hamsat 19 May 06:44:02 06:48:24 88° 102° (ESE) 06:52:49 145.90 MHz
SO-67 19 May 06:53:12 06:56:09 24° 101° (E) 06:59:06 435.3500 MHz FM
PANSAT 19 May 06:56:55 06:59:12 15° 152° (SSE) 07:01:29 not established
STRAND 1 19 May 07:07:53 07:10:52 16° 257° (WSW) 07:13:50 ?
Sapphire 19 May 07:11:24 07:15:53 27° 289° (WNW) 07:20:22 437.095 MHz 1200 baud AX-25 AFSK
JAS-1B 19 May 07:21:34 07:27:09 66° 103° (ESE) 07:33:03 435.800 - 435.900 CW/SSB
SO-50 19 May 07:31:47 07:36:39 83° 112° (ESE) 07:41:29 436.795 FM
HO-68 19 May 08:28:49 08:35:15 36° 105° (ESE) 08:41:41 435.675 MHz FM
Oscar 11 19 May 08:33:48 08:35:39 13° 102° (ESE) 08:37:31 145.825 FM, Beacon 2401.500 USB
PANSAT 19 May 08:35:40 08:39:35 84° 329° (NNW) 08:43:30 not established
KITSAT 1 19 May 09:15:27 09:23:10 48° 70° (ENE) 09:30:51 435.175 FM
OPAL 19 May 09:15:27 09:19:14 22° 104° (ESE) 09:23:01 ?
UOSAT-12 19 May 09:20:47 09:22:50 13° 113° (ESE) 09:24:53 437.025 FM, 437.400 FM
JAS-2 19 May 09:26:27 09:32:36 79° 102° (ESE) 09:38:05 435.800 - 435.900 CW/SSB, 435.910 FM
Oscar 11 19 May 10:07:56 10:11:36 27° 282° (WNW) 10:15:18 145.825 FM, Beacon 2401.500 USB
HO-68 19 May 10:17:05 10:22:37 25° 285° (WNW) 10:28:11 435.675 MHz FM
PANSAT 19 May 10:18:05 10:19:59 13° 332° (NNW) 10:21:52 not established
OPAL 19 May 10:54:16 10:57:52 21° 284° (WNW) 11:01:30 ?
UOSAT-12 19 May 10:58:54 11:02:45 28° 292° (WNW) 11:06:37 437.025 FM, 437.400 FM
KITSAT 1 19 May 11:12:31 11:18:15 21° 249° (WSW) 11:24:01 435.175 FM
ISS 19 May 12:34:14 12:37:29 50° 55° (NE) 12:40:46 145.800 FM
Uribyol 2 19 May 12:43:09 12:46:27 17° 77° (ENE) 12:49:44 436.500 FM
MaSat-1 19 May 12:45:28 12:47:54 55° 73° (ENE) 12:50:25 437.345 MHz
Oscar 19 19 May 12:53:19 12:57:41 28° 77° (ENE) 13:02:03 437.125 CW, 437.150 USB
AO-Echo 19 May 13:29:39 13:32:26 15° 78° (ENE) 13:35:10 ?
AO-27 19 May 13:30:55 13:36:04 68° 77° (ENE) 13:41:12 436.795 MHz FM
Oscar 16 19 May 13:31:04 13:36:15 79° 258° (WSW) 13:41:25 437.025 USB, Beacon 2401.1428
ITAMSAT 1 19 May 13:38:32 13:43:43 82° 78° (ENE) 13:48:53 435.822 SSB
Uribyol 2 19 May 14:21:17 14:25:40 28° 257° (WSW) 14:30:03 436.500 FM
RS-15 19 May 14:27:18 14:39:10 54° 111° (ESE) 14:50:44 29.354 - 29.394 USB, Beacon 29.352 USB
Oscar 19 19 May 14:33:23 14:36:46 18° 257° (WSW) 14:40:10 437.125 CW, 437.150 USB
TMSAT-1 19 May 14:54:19 14:58:39 26° 78° (ENE) 15:02:57 436.925 FM
Uosat F 19 May 14:55:20 15:00:18 62° 77° (ENE) 15:05:13 435.120 FM
AO-Echo 19 May 15:06:26 15:10:59 32° 257° (WSW) 15:15:24 ?
Gurwin Techsat 1B 19 May 15:12:46 15:18:04 76° 78° (ENE) 15:23:21 435.225 FM
Saudisat 1A 19 May 15:44:49 15:48:07 21° 67° (ENE) 15:51:22 436.775 MHz
AO-7 19 May 16:17:50 16:25:56 59° 74° (ENE) 16:34:00 29.400 - 29.500 MHz
TMSAT-1 19 May 16:34:32 16:38:18 20° 257° (WSW) 16:42:04 436.925 FM
RS-15 19 May 16:41:21 16:51:11 29° 291° (WNW) 17:00:56 29.354 - 29.394 USB, Beacon 29.352 USB
Saudisat 1A 19 May 17:24:43 17:27:32 17° 248° (WSW) 17:30:20 436.775 MHz
PCSat 19 May 17:31:52 17:36:25 28° 71° (ENE) 17:40:58 145.825 MHz
JAS-1B 19 May 17:44:32 17:47:37 12° 76° (ENE) 17:50:37 435.800 - 435.900 CW/SSB
STRAND 1 19 May 17:59:37 18:04:45 79° 103° (ESE) 18:09:55 ?
Sapphire 19 May 18:03:50 18:09:10 62° 71° (ENE) 18:14:30 437.095 MHz 1200 baud AX-25 AFSK
AO-7 19 May 18:13:20 18:18:19 17° 253° (WSW) 18:23:18 29.400 - 29.500 MHz
SO-67 19 May 18:41:56 18:44:09 16° 79° (E) 18:46:22 435.3500 MHz FM
PANSAT 19 May 18:45:37 18:48:00 16° 28° (NNE) 18:50:24 not established
Hamsat 19 May 18:52:31 18:56:42 69° 259° (WSW) 19:00:52 145.90 MHz
PCSat 19 May 19:15:49 19:19:35 19° 250° (WSW) 19:23:21 145.825 MHz
JAS-1B 19 May 19:27:42 19:37:40 88° 76° (ENE) 19:47:09 435.800 - 435.900 CW/SSB
SO-50 19 May 19:46:06 19:50:23 49° 248° (WSW) 19:54:43 436.795 FM
SO-67 19 May 20:15:44 20:17:21 13° 259° (WSW) 20:18:58 435.3500 MHz FM
HO-68 19 May 20:20:52 20:26:56 30° 75° (ENE) 20:32:58 435.675 MHz FM
PANSAT 19 May 20:24:28 20:28:22 78° 211° (SSW) 20:32:16 not established
Oscar 11 19 May 20:42:33 20:45:20 17° 78° (ENE) 20:48:06 145.825 FM, Beacon 2401.500 USB
JAS-2 19 May 20:56:54 21:03:23 45° 76° (ENE) 21:10:28 435.800 - 435.900 CW/SSB, 435.910 FM
JAS-1B 19 May 21:23:13 21:27:23 13° 254° (WSW) 21:31:32 435.800 - 435.900 CW/SSB
KITSAT 1 19 May 21:23:16 21:31:11 62° 110° (ESE) 21:39:05 435.175 FM
UOSAT-12 19 May 21:29:42 21:33:19 23° 68° (ENE) 21:36:57 437.025 FM, 437.400 FM
OPAL 19 May 21:46:01 21:51:08 57° 76° (ENE) 21:56:14 ?
PANSAT 19 May 22:07:05 22:08:47 12° 207° (SSW) 22:10:29 not established
HO-68 19 May 22:08:19 22:14:18 29° 255° (WSW) 22:20:17 435.675 MHz FM
Oscar 11 19 May 22:18:11 22:21:18 19° 258° (WSW) 22:24:24 145.825 FM, Beacon 2401.500 USB
JAS-2 19 May 22:43:24 22:48:12 20° 259° (W) 22:53:20 435.800 - 435.900 CW/SSB, 435.910 FM
UOSAT-12 19 May 23:10:15 23:13:14 17° 248° (WSW) 23:16:15 437.025 FM, 437.400 FM
KITSAT 1 19 May 23:21:59 23:26:18 15° 291° (WNW) 23:30:39 435.175 FM
MaSat-1 19 May 23:30:04 23:35:20 21° 107° (ESE) 23:40:34 437.345 MHz
ISS 20 May 00:10:15 00:13:12 31° 126° (SE) 00:16:09 145.800 FM
Oscar 16 20 May 00:28:02 00:31:10 16° 103° (ESE) 00:34:17 437.025 USB, Beacon 2401.1428
AO-27 20 May 00:30:45 00:32:08 11° 103° (ESE) 00:33:31 436.795 MHz FM
ITAMSAT 1 20 May 00:37:10 00:39:39 14° 103° (ESE) 00:42:08 435.822 SSB

Developed and maintained by Chris Peat, Heavens-Above GmbH. Please read the updated FAQ before sending e-mail. Imprint. DLR
